Location: Gellin
(53.4498°N, 14.3207°E)
Time: 22:57:02
(UTC+00:00)

ARIANE 5 R/B - Pass Details

Date: 03 March 2021
Orbit: 621 x 655 km, 98.2° (Epoch: 11 April)

Event Time Altitude Azimuth Distance (km) Brightness Sun altitude
Exits shadow 20:21:41 33° 332° (NNW) 1,093 4.2 -31.5°
Drops below altitude 10° 20:24:16 10° 341° (NNW) 2,077 5.9 -31.8°
Sets 20:26:31 0° 344° (NNW) 2,995 6.8 -32.0°
